Regional Weather Roundup
Issued by NWS Cleveland, OH

Home | Current Version | Previous Version | Text Only | Print | Product List | Glossary On
Versions: 1 2 3 4 5 6 7 8 9 10 11 12 13 14 15 16 17 18 19 20 21 22 23 24 25 26 27 28 29 30 31 32 33 34 35 36 37 38 39 40 41 42 43 44 45 46 47 48 49 50
000
ASUS41 KCLE 250212
RWRCLE
OHIO REGIONAL WEATHER ROUNDUP
NATIONAL WEATHER SERVICE WILMINGTON, OH
1000 PM EDT WED AUG 24 2016

NOTE: "FAIR" INDICATES FEW OR NO CLOUDS BELOW 12,000 FEET WITH NO
SIGNIFICANT WEATHER AND/OR OBSTRUCTIONS TO VISIBILITY.

OHZ001>008-015>018-024>027-034-035-043-044-250300-
   NORTHWEST OHIO

CITY           SKY/WX    TMP DP  RH WIND       PRES   REMARKS
DEFIANCE       CLOUDY    74  70  87 SW5       29.98S
FINDLAY        RAIN      77  72  84 SW10      29.99S
TOLEDO EXPRESS LGT RAIN  74  74 100 SW10      29.97F
TOLEDO EXEC    TSTM      77  75  93 S8        29.97F FOG
LIMA           TSTM      75  75 100 W10       30.03R FOG
$$

OHZ009>014-019>023-028>033-038-089-250300-
   NORTHEAST OHIO

CITY           SKY/WX    TMP DP  RH WIND       PRES   REMARKS
CLE-HOPKINS    MOCLDY    81  67  62 S13       30.04F
CLE-LAKEFRONT  MOCLDY    83  67  58 S17G30    30.01F
CUY CO. ARPT   MOCLDY    82  70  65 S16       30.04F
LORAIN-ELYRIA  FAIR      78  68  71 S13       30.03F
ASHTABULA      FAIR      77  67  71 S9        30.06S
AKRON-CANTON   MOCLDY    78  66  66 S12       30.08F
WOOSTER        FAIR      75  68  78 S12       30.08S
MANSFIELD      FAIR      77  69  76 S14       30.06F
YOUNGSTOWN     CLOUDY    77  65  66 S7        30.10R
$$

OHZ042-051>053-060>062-070>072-077>081-250300-
  SOUTHWEST OHIO

CITY           SKY/WX    TMP DP  RH WIND       PRES   REMARKS
CINC-COVINGTON CLOUDY    81  73  76 SW8       30.08R
CINC-LUNKEN    FAIR      80  73  79 S10       30.06R
HAMILTON       FAIR      82  72  71 SW8       30.05S
DAYTON         MOCLDY    77  73  87 S12       30.05F
WRIGHT-PAT AFB FAIR      77  74  91 S6        30.04S
DAYTON GENERAL FAIR      77  72  84 S8        30.05S
WILMINGTON     FAIR      76  73  91 S9        30.07R
$$

OHZ036-037-039>041-045>050-054>059-063>069-073>076-082>088-250300-
  CENTRAL AND SOUTHEAST OHIO

CITY           SKY/WX    TMP DP  RH WIND       PRES   REMARKS
COLUMBUS       MOCLDY    78  70  76 S10       30.06S
OSU AIRPORT    MOCLDY    78  72  81 S12       30.06S
BOLTON FIELD   FAIR      75  73  91 S8        30.07S
RICKENBACK AFB FAIR      76  71  84 S10       30.06S
NEWARK         FAIR      77  70  79 S7        30.07
MARION         FAIR      77  70  79 S13       30.04F
LANCASTER      FAIR      79  71  76 S9        30.08S
ZANESVILLE     FAIR      77  69  76 S8        30.10S
NEW PHILLY     FAIR      79  68  69 S7        30.09F
$$



USA.gov is the U.S. government's official web portal to all federal, state and local government web resources and services.